Weather History for Rochester, NH

Change the Weather History Date:

Wednesday, December 4, 2013

  Actual Average (KSFM) Record (KSFM)
Temperature  
Mean Temperature 34 °F -  
Max Temperature 39 °F 39 °F 66 °F (1998)
Min Temperature 30 °F 21 °F 8 °F (2000)
Degree Days  
Heating Degree Days 30    
Moisture  
Dew Point 24 °F    
Average Humidity 67    
Maximum Humidity 85    
Minimum Humidity 55    
Precipitation  
Precipitation 0.00 in - - ()
Sea Level Pressure  
Sea Level Pressure 30.06 in    
Wind  
Wind Speed 5 mph (WNW)    
Max Wind Speed 9 mph    
Max Gust Speed -    
Visibility 10 miles    
Events      
Averages and records for this station are not official NWS values.
T = Trace of Precipitation, MM = Missing Value Source: NWS Daily Summary

Daily Weather History Graph

Daily Weather History Graph

Search for Another Location

Airport:

Trip Planner

Search our weather history database for the weather conditions in past years. The results will help you decide how hot, cold, wet, or windy it might be!

Date:

Astronomy

Dec. 04, 2013 Rise Set
Actual Time 6:59 AM EST 4:08 PM EST
Civil Twilight 6:27 AM EST 4:40 PM EST
Nautical Twilight 5:51 AM EST 5:16 PM EST
Astronomical Twilight 5:17 AM EST 5:50 PM EST
Moon 8:23 AM EST (12/4) 6:16 PM EST (12/4)
Length of Visible Light 10h 13m
Length of Day
9h 08m
Waxing Crescent, 4% of the Moon is Illuminated
Dec 4
Waxing Crescent
Dec 9
First Quarter
Dec 17
Full
Dec 25
Last Quarter
Jan 1
New

Hourly Weather History & Observations

Time (EST) Temp. Windchill Dew Point Humidity Pressure Visibility Wind Dir Wind Speed Gust Speed Precip Events Conditions
12:51 AM 30.9 °F 26.2 °F 27.0 °F 85% 29.91 in 10.0 mi Variable 4.6 mph - N/A   Clear
1:51 AM 30.9 °F 24.3 °F 27.0 °F 85% 29.92 in 10.0 mi WSW 6.9 mph - N/A   Clear
2:51 AM 33.1 °F 27.7 °F 25.0 °F 72% 29.93 in 10.0 mi Variable 5.8 mph - N/A   Clear
3:51 AM 33.1 °F 26.1 °F 24.1 °F 70% 29.94 in 10.0 mi WNW 8.1 mph - N/A   Clear
4:51 AM 33.1 °F 26.1 °F 21.9 °F 64% 29.94 in 10.0 mi WNW 8.1 mph - N/A   Clear
5:51 AM 30.0 °F 23.2 °F 19.9 °F 66% 29.97 in 10.0 mi NW 6.9 mph - N/A   Clear
6:51 AM 30.0 °F 25.2 °F 21.0 °F 69% 30.00 in 10.0 mi West 4.6 mph - N/A   Clear
7:51 AM 32.0 °F 27.5 °F 21.9 °F 66% 30.03 in 10.0 mi Variable 4.6 mph - N/A   Clear
8:51 AM 34.0 °F 31.0 °F 23.0 °F 64% 30.04 in 10.0 mi Variable 3.5 mph - N/A   Clear
9:51 AM 37.0 °F 30.4 °F 24.1 °F 59% 30.06 in 10.0 mi NW 9.2 mph - N/A   Clear
10:51 AM 37.9 °F 31.5 °F 24.1 °F 57% 30.06 in 10.0 mi WNW 9.2 mph - N/A   Clear
11:51 AM 39.0 °F 32.8 °F 25.0 °F 57% 30.05 in 10.0 mi NW 9.2 mph - N/A   Clear
12:51 PM 39.9 °F 35.1 °F 25.0 °F 55% 30.06 in 10.0 mi WNW 6.9 mph - N/A   Mostly Cloudy
1:51 PM 39.0 °F 36.8 °F 25.0 °F 57% 30.05 in 10.0 mi Variable 3.5 mph - N/A   Overcast
2:51 PM 39.0 °F 35.7 °F 25.0 °F 57% 30.07 in 10.0 mi WNW 4.6 mph - N/A   Overcast
3:51 PM 37.9 °F - 25.0 °F 60% 30.09 in 10.0 mi Calm Calm - N/A   Mostly Cloudy
4:51 PM 36.0 °F 33.3 °F 25.0 °F 64% 30.12 in 10.0 mi WSW 3.5 mph - N/A   Clear
5:51 PM 36.0 °F - 24.1 °F 62% 30.12 in 10.0 mi Calm Calm - N/A   Clear
6:51 PM 36.0 °F 31.1 °F 24.1 °F 62% 30.15 in 10.0 mi WNW 5.8 mph - N/A   Clear
7:51 PM 30.9 °F - 24.1 °F 76% 30.15 in 10.0 mi Calm Calm - N/A   Clear
8:51 PM 32.0 °F - 24.1 °F 73% 30.16 in 10.0 mi Calm Calm - N/A   Clear
9:51 PM 30.0 °F - 24.1 °F 79% 30.17 in 10.0 mi Calm Calm - N/A   Clear
10:51 PM 30.0 °F - 24.1 °F 79% 30.17 in 10.0 mi Calm Calm - N/A   Clear
11:51 PM 30.0 °F - 25.0 °F 82% 30.19 in 10.0 mi Calm Calm - N/A   Clear